When you browse on this site, cookies collect data to enhance your experience and personalize the content and advertising you see.
Visit our Privacy Policy to learn more. By continuing to use the site, you agree to this use of cookies and data.
  • în România
  • Lista ţărilor
  • Pe 7 zile
  • Temperatura apei
  • Hartă satelitară
  • Meteo pe hartă
  • Widget-uri
  • user-avatar
    Intrare

    Meteo pe oră la Arroyo

    Astăzi, 25 Aprilie, Joi

    Timp Temperatura Precipitaţii Vânt Presiune Umiditate
    00:00 +8°C° 0 mm 3 m/s 721 mmHg 96%
    01:00 +8°C° 0 mm 3 m/s 722 mmHg 95%
    02:00 +7°C° 0 mm 3 m/s 722 mmHg 95%
    03:00 +6°C° 0 mm 4 m/s 722 mmHg 94%
    04:00 +6°C° 0 mm 4 m/s 723 mmHg 94%
    05:00 +7°C° 0 mm 3 m/s 723 mmHg 94%
    06:00 +5°C° 0 mm 3 m/s 724 mmHg 95%
    07:00 +7°C° 0.1 mm 4 m/s 724 mmHg 89%
    08:00 +8°C° 0.1 mm 5 m/s 725 mmHg 83%
    09:00 +9°C° 0.1 mm 6 m/s 725 mmHg 77%
    10:00 +9°C° 0.4 mm 6 m/s 726 mmHg 75%
    11:00 +10°C° 0.4 mm 6 m/s 726 mmHg 72%
    12:00 +10°C° 0.4 mm 6 m/s 726 mmHg 70%
    13:00 +11°C° 0.2 mm 6 m/s 727 mmHg 65%
    14:00 +12°C° 0.2 mm 7 m/s 727 mmHg 60%
    15:00 +12°C° 0.2 mm 7 m/s 728 mmHg 55%
    16:00 +13°C° 0 mm 6 m/s 728 mmHg 56%
    17:00 +13°C° 0 mm 5 m/s 728 mmHg 57%
    18:00 +13°C° 0 mm 4 m/s 729 mmHg 59%
    19:00 +11°C° 0 mm 4 m/s 730 mmHg 65%
    20:00 +9°C° 0 mm 3 m/s 730 mmHg 72%
    21:00 +8°C° 0 mm 3 m/s 731 mmHg 79%
    22:00 +7°C° 0 mm 3 m/s 732 mmHg 83%
    23:00 +7°C° 0 mm 2 m/s 732 mmHg 87%

    Mâine, 26 Aprilie, Vineri

    Timp Temperatura Precipitaţii Vânt Presiune Umiditate
    00:00 +6°C° 0 mm 2 m/s 733 mmHg 91%
    01:00 +6°C° 0 mm 2 m/s 733 mmHg 92%
    02:00 +6°C° 0 mm 2 m/s 733 mmHg 94%
    03:00 +6°C° 0 mm 1 m/s 733 mmHg 96%
    04:00 +6°C° 0 mm 1 m/s 733 mmHg 96%
    05:00 +6°C° 0 mm 1 m/s 733 mmHg 96%
    06:00 +6°C° 0 mm 1 m/s 733 mmHg 96%
    07:00 +8°C° 0 mm 1 m/s 734 mmHg 86%
    08:00 +11°C° 0 mm 1 m/s 734 mmHg 76%
    09:00 +13°C° 0 mm 2 m/s 735 mmHg 66%
    10:00 +14°C° 0 mm 2 m/s 735 mmHg 59%
    11:00 +16°C° 0 mm 2 m/s 735 mmHg 52%
    12:00 +17°C° 0 mm 3 m/s 735 mmHg 46%
    13:00 +18°C° 0 mm 3 m/s 735 mmHg 44%
    14:00 +18°C° 0 mm 3 m/s 734 mmHg 43%
    15:00 +19°C° 0 mm 3 m/s 734 mmHg 42%
    16:00 +19°C° 0 mm 2 m/s 734 mmHg 46%
    17:00 +18°C° 0 mm 2 m/s 734 mmHg 50%
    18:00 +18°C° 0 mm 2 m/s 733 mmHg 55%
    19:00 +16°C° 0 mm 1 m/s 734 mmHg 58%
    20:00 +14°C° 0 mm 1 m/s 734 mmHg 62%
    21:00 +12°C° 0 mm 1 m/s 735 mmHg 65%
    22:00 +11°C° 0 mm 1 m/s 735 mmHg 68%
    23:00 +10°C° 0 mm 1 m/s 735 mmHg 71%

    Poimâine, 27 Aprilie, Sâmbătă

    Timp Temperatura Precipitaţii Vânt Presiune Umiditate
    00:00 +10°C° 0 mm 1 m/s 734 mmHg 73%
    01:00 +9°C° 0 mm 1 m/s 734 mmHg 75%
    02:00 +9°C° 0 mm 1 m/s 734 mmHg 77%
    03:00 +8°C° 0 mm 1 m/s 734 mmHg 78%
    04:00 +8°C° 0 mm 1 m/s 734 mmHg 80%
    05:00 +8°C° 0 mm 1 m/s 734 mmHg 81%
    06:00 +7°C° 0 mm 1 m/s 734 mmHg 82%
    07:00 +10°C° 0 mm 1 m/s 734 mmHg 73%
    08:00 +13°C° 0 mm 2 m/s 734 mmHg 64%
    09:00 +16°C° 0 mm 2 m/s 734 mmHg 55%
    10:00 +18°C° 0 mm 2 m/s 734 mmHg 50%
    11:00 +20°C° 0 mm 2 m/s 734 mmHg 44%
    12:00 +23°C° 0 mm 2 m/s 734 mmHg 39%
    13:00 +24°C° 0 mm 2 m/s 734 mmHg 38%
    14:00 +24°C° 0 mm 2 m/s 733 mmHg 36%
    15:00 +25°C° 0 mm 2 m/s 733 mmHg 34%
    16:00 +24°C° 0 mm 2 m/s 732 mmHg 39%
    17:00 +24°C° 0 mm 2 m/s 732 mmHg 44%
    18:00 +23°C° 0 mm 1 m/s 732 mmHg 49%
    19:00 +21°C° 0 mm 1 m/s 732 mmHg 52%
    20:00 +18°C° 0 mm 1 m/s 732 mmHg 55%
    21:00 +15°C° 0 mm 1 m/s 732 mmHg 58%
    22:00 +15°C° 0 mm 1 m/s 732 mmHg 59%
    23:00 +14°C° 0 mm 1 m/s 732 mmHg 61%

    28 Aprilie, Duminică

    Timp Temperatura Precipitaţii Vânt Presiune Umiditate
    00:00 +14°C° 0 mm 1 m/s 732 mmHg 62%
    01:00 +13°C° 0 mm 1 m/s 731 mmHg 64%
    02:00 +13°C° 0 mm 1 m/s 731 mmHg 66%
    03:00 +12°C° 0 mm 1 m/s 731 mmHg 68%
    04:00 +12°C° 0 mm 2 m/s 731 mmHg 69%
    05:00 +12°C° 0 mm 2 m/s 731 mmHg 70%
    06:00 +10°C° 0 mm 2 m/s 730 mmHg 71%
    07:00 +14°C° 0 mm 2 m/s 731 mmHg 65%
    08:00 +17°C° 0 mm 3 m/s 731 mmHg 60%
    09:00 +20°C° 0 mm 4 m/s 731 mmHg 54%
    10:00 +21°C° 0 mm 3 m/s 731 mmHg 49%
    11:00 +24°C° 0 mm 3 m/s 731 mmHg 43%
    12:00 +26°C° 0 mm 3 m/s 730 mmHg 38%
    13:00 +26°C° 0 mm 3 m/s 730 mmHg 37%
    14:00 +27°C° 0 mm 2 m/s 729 mmHg 35%
    15:00 +27°C° 0 mm 2 m/s 729 mmHg 34%
    16:00 +27°C° 0 mm 2 m/s 729 mmHg 38%
    17:00 +26°C° 0 mm 2 m/s 728 mmHg 43%
    18:00 +25°C° 0 mm 1 m/s 728 mmHg 48%
    19:00 +23°C° 0 mm 1 m/s 728 mmHg 52%
    20:00 +20°C° 0 mm 1 m/s 728 mmHg 56%
    21:00 +18°C° 0 mm 1 m/s 728 mmHg 60%
    22:00 +18°C° 0 mm 1 m/s 728 mmHg 62%
    23:00 +16°C° 0 mm 1 m/s 728 mmHg 63%

    29 Aprilie, Luni

    Timp Temperatura Precipitaţii Vânt Presiune Umiditate
    00:00 +16°C° 0 mm 1 m/s 728 mmHg 65%
    01:00 +15°C° 0 mm 1 m/s 727 mmHg 67%
    02:00 +15°C° 0 mm 1 m/s 727 mmHg 69%
    03:00 +14°C° 0 mm 1 m/s 727 mmHg 72%
    04:00 +14°C° 0 mm 1 m/s 727 mmHg 72%
    05:00 +13°C° 0 mm 1 m/s 727 mmHg 72%
    06:00 +13°C° 0 mm 1 m/s 727 mmHg 73%
    07:00 +16°C° 0 mm 1 m/s 727 mmHg 65%
    08:00 +19°C° 0 mm 1 m/s 728 mmHg 57%
    09:00 +21°C° 0 mm 2 m/s 728 mmHg 49%
    10:00 +24°C° 0 mm 1 m/s 728 mmHg 45%
    11:00 +26°C° 0 mm 1 m/s 728 mmHg 40%
    12:00 +28°C° 0 mm 1 m/s 728 mmHg 36%
    13:00 +28°C° 0 mm 1 m/s 727 mmHg 34%
    14:00 +29°C° 0 mm 1 m/s 727 mmHg 32%
    15:00 +29°C° 0 mm 1 m/s 726 mmHg 31%
    16:00 +28°C° 0 mm 1 m/s 726 mmHg 35%
    17:00 +27°C° 0 mm 1 m/s 726 mmHg 39%
    18:00 +26°C° 0 mm 2 m/s 725 mmHg 43%
    19:00 +24°C° 0 mm 1 m/s 726 mmHg 47%
    20:00 +22°C° 0 mm 1 m/s 726 mmHg 50%
    21:00 +19°C° 0 mm 1 m/s 726 mmHg 54%
    22:00 +19°C° 0 mm 1 m/s 726 mmHg 57%
    23:00 +18°C° 0 mm 1 m/s 726 mmHg 61%

    30 Aprilie, Marţi

    Timp Temperatura Precipitaţii Vânt Presiune Umiditate
    00:00 +16°C° 0 mm 1 m/s 726 mmHg 64%
    01:00 +16°C° 0 mm 1 m/s 725 mmHg 67%
    02:00 +14°C° 0 mm 0 m/s 725 mmHg 69%
    03:00 +14°C° 0 mm 0 m/s 725 mmHg 72%
    04:00 +14°C° 0 mm 0 m/s 725 mmHg 73%
    05:00 +13°C° 0 mm 0 m/s 725 mmHg 74%
    06:00 +13°C° 0 mm 0 m/s 725 mmHg 75%
    07:00 +16°C° 0 mm 0 m/s 725 mmHg 67%
    08:00 +19°C° 0 mm 0 m/s 726 mmHg 59%
    09:00 +21°C° 0 mm 0 m/s 726 mmHg 51%
    10:00 +25°C° 0 mm 1 m/s 726 mmHg 47%
    11:00 +26°C° 0 mm 2 m/s 726 mmHg 42%
    12:00 +27°C° 0 mm 2 m/s 726 mmHg 37%
    13:00 +28°C° 0 mm 2 m/s 725 mmHg 36%
    14:00 +28°C° 0 mm 3 m/s 725 mmHg 34%
    15:00 +28°C° 0 mm 3 m/s 724 mmHg 33%
    16:00 +27°C° 0 mm 3 m/s 724 mmHg 37%
    17:00 +26°C° 0 mm 3 m/s 724 mmHg 41%
    18:00 +25°C° 0 mm 3 m/s 724 mmHg 45%
    19:00 +22°C° 0 mm 3 m/s 724 mmHg 50%
    20:00 +20°C° 0 mm 3 m/s 724 mmHg 54%
    21:00 +17°C° 0 mm 3 m/s 725 mmHg 59%
    22:00 +16°C° 0 mm 2 m/s 724 mmHg 62%
    23:00 +15°C° 0 mm 2 m/s 724 mmHg 65%
    Arată mai mult